Weather History for KPOF - November, 2011

Change the Weather History Date:

Sunday, November 13, 2011

  Actual Average Record
Temperature  
Mean Temperature 65 °F -  
Max Temperature 73 °F 58 °F 84 °F (1955)
Min Temperature 57 °F 34 °F 12 °F (1986)
Growing Degree Days 15 (Base 50)    
Moisture  
Dew Point 57 °F    
Average Humidity 73    
Maximum Humidity 78    
Minimum Humidity 64    
Precipitation  
Precipitation 0.00 in - - ()
Sea Level Pressure  
Sea Level Pressure 29.73 in    
Wind  
Wind Speed 17 mph (SSW)    
Max Wind Speed 32 mph    
Max Gust Speed 45 mph    
Visibility 10 miles    
Events      
Averages and records for this station are not official NWS values.
T = Trace of Precipitation, MM = Missing Value Source: NWS Daily Summary

Daily Weather History Graph

Daily Weather History Graph

Search for Another Location

Airport or City:

Trip Planner

Search our weather history database for the weather conditions in past years. The results will help you decide how hot, cold, wet, or windy it might be!

Date:

Astronomy

Nov. 13, 2011 Rise Set
Actual Time 6:37 AM CST 4:53 PM CST
Civil Twilight 6:09 AM CST 5:21 PM CST
Nautical Twilight 5:38 AM CST 5:52 PM CST
Astronomical Twilight 5:07 AM CST 6:22 PM CST
Moon 7:05 PM CST (11/13) 9:07 AM CST (11/13)
Length of Visible Light 11h 11m
Length of Day
10h 16m
Waning Gibbous, 92% of the Moon is Illuminated
Nov 13
Waning Gibbous
Nov 18
Last Quarter
Nov 25
New
Dec 2
First Quarter
Dec 10
Full

Hourly Weather History & Observations

Time (CST) Temp. Dew Point Humidity Pressure Visibility Wind Dir Wind Speed Gust Speed Precip Events Conditions
12:53 AM 57.9 °F 50.0 °F 75% 29.80 in 10.0 mi South 12.7 mph - N/A   Clear
1:53 AM 57.9 °F 51.1 °F 78% 29.79 in 10.0 mi SSW 12.7 mph - N/A   Clear
2:53 AM 60.1 °F 52.0 °F 75% 29.78 in 10.0 mi South 15.0 mph 23.0 mph N/A   Mostly Cloudy
3:27 AM 60.8 °F 51.8 °F 72% 29.78 in 10.0 mi South 16.1 mph 21.9 mph N/A   Overcast
3:53 AM 61.0 °F 53.1 °F 75% 29.77 in 10.0 mi South 16.1 mph - N/A   Overcast
4:53 AM 62.1 °F 54.0 °F 75% 29.76 in 10.0 mi SSW 19.6 mph 27.6 mph N/A   Overcast
5:53 AM 62.1 °F 54.0 °F 75% 29.77 in 10.0 mi SSW 18.4 mph 31.1 mph N/A   Overcast
6:53 AM 63.0 °F 55.0 °F 75% 29.74 in 10.0 mi SSW 17.3 mph 28.8 mph N/A   Overcast
7:53 AM 63.0 °F 55.9 °F 78% 29.73 in 10.0 mi SSW 24.2 mph 33.4 mph N/A   Overcast
8:53 AM 64.9 °F 57.0 °F 75% 29.72 in 10.0 mi SSW 23.0 mph 41.4 mph N/A   Overcast
9:53 AM 66.9 °F 57.9 °F 73% 29.73 in 10.0 mi SSW 32.2 mph 44.9 mph N/A   Overcast
10:53 AM 66.9 °F 57.9 °F 73% 29.73 in 10.0 mi SSW 23.0 mph 38.0 mph N/A   Overcast
11:53 AM 69.1 °F 59.0 °F 70% 29.70 in 10.0 mi SSW 19.6 mph 31.1 mph N/A   Overcast
12:23 PM 69.8 °F 59.0 °F 68% 29.69 in 10.0 mi SSW 16.1 mph 33.4 mph N/A   Overcast
12:53 PM 72.0 °F 60.1 °F 66% 29.68 in 10.0 mi SSW 23.0 mph 29.9 mph N/A   Overcast
1:53 PM 73.0 °F 60.1 °F 64% 29.66 in 10.0 mi SSW 24.2 mph 38.0 mph N/A   Partly Cloudy
2:53 PM 72.0 °F 59.0 °F 64% 29.66 in 10.0 mi SSW 20.7 mph 32.2 mph N/A   Clear
4:53 PM 71.1 °F 60.1 °F 68% 29.70 in 10.0 mi South 15.0 mph 24.2 mph N/A   Overcast
5:53 PM 70.0 °F 60.1 °F 71% 29.72 in 10.0 mi South 17.3 mph 23.0 mph N/A   Clear
6:53 PM 69.1 °F 60.1 °F 73% 29.73 in 10.0 mi South 12.7 mph - N/A   Partly Cloudy
7:53 PM 70.0 °F 60.1 °F 71% 29.74 in 10.0 mi South 11.5 mph - N/A   Overcast
8:53 PM 69.1 °F 61.0 °F 75% 29.75 in 10.0 mi South 9.2 mph - N/A   Mostly Cloudy
9:53 PM 68.0 °F 61.0 °F 78% 29.75 in 10.0 mi SSW 10.4 mph - N/A   Overcast
10:53 PM 70.0 °F 61.0 °F 73% 29.74 in 10.0 mi SSW 17.3 mph 21.9 mph N/A   Overcast
11:53 PM 69.1 °F 61.0 °F 75% 29.74 in 10.0 mi SSW 13.8 mph - N/A   Partly Cloudy